Dublin, Ireland

8:45 PM IST on October 17, 2017 (GMT +0100)
Dublin International

Weather History for EIDW - February, 2014

Change the Weather History Date:

Thursday, February 27, 2014

  Actual Average Record
Temperature  
Mean Temperature 42 °F -  
Max Temperature 48 °F 49 °F 57 °F (2007)
Min Temperature 37 °F 38 °F 26 °F (2004)
Degree Days  
Heating Degree Days 22    
Moisture  
Dew Point 36 °F    
Average Humidity 78    
Maximum Humidity 93    
Minimum Humidity 54    
Precipitation  
Precipitation 0.00 in 0.07 in - ()
Sea Level Pressure  
Sea Level Pressure 29.54 in    
Wind  
Wind Speed 16 mph ()    
Max Wind Speed 29 mph    
Max Gust Speed -    
Visibility 9.5 miles    
Events Rain    
Averages and records for this station are not official NWS values.
T = Trace of Precipitation, MM = Missing Value Source: Averaged Metar Reports

Daily Weather History Graph

Daily Weather History Graph

Search for Another Location

Airport or City:

Trip Planner

Search our weather history database for the weather conditions in past years. The results will help you decide how hot, cold, wet, or windy it might be!

Date:

Astronomy

Feb. 27, 2014 Rise Set
Actual Time 7:17 AM GMT 5:58 PM GMT
Civil Twilight 6:42 AM GMT 6:33 PM GMT
Nautical Twilight 6:02 AM GMT 7:14 PM GMT
Astronomical Twilight 5:21 AM GMT 7:55 PM GMT
Moon 5:52 AM GMT (2/27) 3:58 PM GMT (2/27)
Length of Visible Light 11h 51m
Length of Day
10h 41m
Waning Crescent, 5% of the Moon is Illuminated
Feb 27
Waning Crescent
Mar 1
New
Mar 8
First Quarter
Mar 16
Full
Mar 24
Last Quarter

Hourly Weather History & Observations

Time (GMT) Temp. Windchill Dew Point Humidity Pressure Visibility Wind Dir Wind Speed Gust Speed Precip Events Conditions
12:00 AM 47 °F - 43 °F 82% 29.46 in 9 mi SSW 17.9 mph - - Rain Light Rain
12:00 AM 46.4 °F 39.8 °F 42.8 °F 87% 29.44 in 6.2 mi South 16.1 mph - N/A Rain Light Rain
12:30 AM 44.6 °F 36.6 °F 42.8 °F 93% 29.44 in 6.2 mi WSW 19.6 mph - N/A Rain Light Rain
1:00 AM 44 °F - 41 °F 83% 29.47 in 19 mi WSW 17.9 mph - - Rain Light Rain
1:00 AM 44.6 °F 37.2 °F 41.0 °F 87% 29.44 in 6.2 mi WSW 17.3 mph - N/A   Mostly Cloudy
1:30 AM 44.6 °F 37.2 °F 39.2 °F 81% 29.44 in 6.2 mi WSW 17.3 mph - N/A   Mostly Cloudy
2:00 AM 43 °F - 39 °F 81% 29.49 in 19 mi WSW 17.9 mph - -   Mostly Cloudy
2:00 AM 42.8 °F 34.8 °F 39.2 °F 87% 29.47 in 6.2 mi WSW 17.3 mph - N/A   Mostly Cloudy
2:30 AM 42.8 °F 34.5 °F 39.2 °F 87% 29.47 in 6.2 mi WSW 18.4 mph - N/A   Mostly Cloudy
3:00 AM 42 °F - 38 °F 81% 29.50 in 19 mi WSW 15.7 mph - -   Partly Cloudy
3:00 AM 42.8 °F 34.8 °F 39.2 °F 87% 29.47 in 6.2 mi WSW 17.3 mph - N/A   Mostly Cloudy
3:30 AM 41.0 °F 32.8 °F 37.4 °F 87% 29.47 in 6.2 mi WSW 16.1 mph - N/A   Scattered Clouds
4:00 AM 41 °F - 37 °F 80%  in 19 mi WSW 17.9 mph - -   Scattered Clouds
4:00 AM 41.0 °F 32.5 °F 37.4 °F 87% 29.50 in 6.2 mi WSW 17.3 mph - N/A   Partly Cloudy
4:30 AM 41.0 °F 31.9 °F 37.4 °F 87% 29.53 in 6.2 mi WSW 19.6 mph - N/A   Scattered Clouds
5:00 AM 40 °F - 36 °F 81% 29.56 in 19 mi WSW 17.9 mph - -   Scattered Clouds
5:00 AM 39.2 °F 29.8 °F 35.6 °F 87% 29.53 in 6.2 mi WSW 18.4 mph - N/A   Partly Cloudy
5:30 AM 39.2 °F 30.5 °F 35.6 °F 87% 29.56 in 6.2 mi WSW 16.1 mph - N/A   Partly Cloudy
6:00 AM 40 °F - 36 °F 78% 29.58 in 19 mi SW 13.4 mph - -   Mostly Cloudy
6:00 AM 39.2 °F 30.8 °F 35.6 °F 87% 29.56 in 6.2 mi SW 15.0 mph - N/A   Mostly Cloudy
6:30 AM 39.2 °F 30.8 °F 35.6 °F 87% 29.56 in 6.2 mi SW 15.0 mph - N/A   Scattered Clouds
7:00 AM 39 °F - 35 °F 81% 29.60 in 19 mi WSW 15.7 mph - -   Mostly Cloudy
7:00 AM 39.2 °F 30.8 °F 35.6 °F 87% 29.56 in 6.2 mi WSW 15.0 mph - N/A   Mostly Cloudy
7:30 AM 39.2 °F 31.6 °F 35.6 °F 87% 29.59 in 6.2 mi West 12.7 mph - N/A   Mostly Cloudy
8:00 AM 39 °F - 35 °F 82% 29.62 in 19 mi WSW 11.2 mph - -   Scattered Clouds
8:00 AM 39.2 °F 32.5 °F 35.6 °F 87% 29.59 in 6.2 mi SW 10.4 mph - N/A   Partly Cloudy
8:30 AM 39.2 °F 31.2 °F 35.6 °F 87% 29.59 in 6.2 mi WSW 13.8 mph - N/A   Partly Cloudy
9:00 AM 41 °F - 35 °F 72% 29.62 in 19 mi WSW 20.1 mph - -   Scattered Clouds
9:00 AM 41.0 °F 32.2 °F 37.4 °F 87% 29.59 in 6.2 mi WSW 18.4 mph - N/A   Partly Cloudy
9:30 AM 41.0 °F 31.6 °F 35.6 °F 81% 29.62 in 6.2 mi WSW 20.7 mph - N/A   Partly Cloudy
10:00 AM 42 °F - 36 °F 71% 29.64 in 19 mi SW 20.1 mph - -   Scattered Clouds
10:00 AM 42.8 °F 34.0 °F 35.6 °F 76% 29.62 in 6.2 mi SW 20.7 mph - N/A   Partly Cloudy
10:30 AM 44.6 °F 36.4 °F 35.6 °F 71% 29.62 in 6.2 mi WSW 20.7 mph - N/A   Partly Cloudy
11:00 AM 45 °F - 36 °F 61% 29.63 in 25 mi WSW 22.4 mph - -   Scattered Clouds
11:00 AM 44.6 °F 36.1 °F 35.6 °F 71% 29.62 in 6.2 mi WSW 21.9 mph - N/A   Partly Cloudy
11:30 AM 46.4 °F 38.7 °F 35.6 °F 66% 29.62 in 6.2 mi WSW 20.7 mph - N/A   Partly Cloudy
12:00 PM 47 °F - 36 °F 54% 29.62 in 25 mi WSW 22.4 mph - -   Partly Cloudy
12:00 PM 48.2 °F - 35.6 °F 62% 29.62 in 6.2 mi WSW 21.9 mph - N/A   Scattered Clouds
12:30 PM 48.2 °F - 33.8 °F 58% 29.59 in 6.2 mi WSW 23.0 mph - N/A   Scattered Clouds
1:00 PM 46 °F - 35 °F 55% 29.62 in 25 mi WSW 22.4 mph - -   Partly Cloudy
1:00 PM 44.6 °F 35.9 °F 33.8 °F 66% 29.59 in 6.2 mi WSW 23.0 mph - N/A   Partly Cloudy
1:30 PM 46.4 °F 37.5 °F 33.8 °F 62% 29.59 in 6.2 mi West 27.6 mph - N/A   Scattered Clouds
2:00 PM 43 °F - 37 °F 73% 29.61 in 19 mi West 26.8 mph - -   Mostly Cloudy
2:00 PM 42.8 °F 32.5 °F 35.6 °F 76% 29.59 in 6.2 mi West 28.8 mph - N/A   Scattered Clouds
2:30 PM 42.8 °F 34.3 °F 37.4 °F 81% 29.59 in 6.2 mi West 19.6 mph - N/A   Mostly Cloudy
3:00 PM 45 °F - 36 °F 60% 29.60 in 19 mi WSW 20.1 mph - -   Partly Cloudy
3:00 PM 44.6 °F 36.1 °F 35.6 °F 71% 29.59 in 6.2 mi WSW 21.9 mph - N/A   Mostly Cloudy
3:30 PM 44.6 °F 35.9 °F 35.6 °F 71% 29.59 in 6.2 mi WSW 23.0 mph - N/A   Scattered Clouds
4:00 PM 45 °F - 36 °F 60% 29.59 in 25 mi SW 15.7 mph - - Rain Light Rain Showers
4:00 PM 44.6 °F 37.4 °F 35.6 °F 71% 29.56 in 6.2 mi SW 16.1 mph - N/A   Partly Cloudy
4:30 PM 44.6 °F 37.4 °F 35.6 °F 71% 29.56 in 6.2 mi SW 16.1 mph - N/A   Partly Cloudy
5:00 PM 44 °F - 35 °F 61% 29.58 in 25 mi WSW 17.9 mph - -   Scattered Clouds
5:00 PM 44.6 °F 36.9 °F 35.6 °F 71% 29.56 in 6.2 mi WSW 18.4 mph - N/A   Partly Cloudy
5:30 PM 42.8 °F 34.0 °F 33.8 °F 70% 29.56 in 6.2 mi WSW 20.7 mph - N/A   Partly Cloudy
6:00 PM 42 °F - 33 °F 62% 29.57 in 25 mi SW 13.4 mph - -   Partly Cloudy
6:00 PM 41.0 °F 33.1 °F 33.8 °F 76% 29.56 in 6.2 mi SW 15.0 mph - N/A   Partly Cloudy
6:30 PM 41.0 °F 33.9 °F 33.8 °F 76% 29.53 in 6.2 mi SSW 12.7 mph - N/A   Partly Cloudy
7:00 PM 40 °F - 34 °F 71% 29.57 in 19 mi SSW 11.2 mph - -   Scattered Clouds
7:00 PM 39.2 °F 32.5 °F 33.8 °F 81% 29.53 in 6.2 mi SSW 10.4 mph - N/A   Partly Cloudy
7:30 PM 39.2 °F 33.6 °F 33.8 °F 81% 29.53 in 6.2 mi SSW 8.1 mph - N/A   Scattered Clouds
8:00 PM 38 °F - 33 °F 77% 29.53 in 19 mi South 6.7 mph - -   Scattered Clouds
8:00 PM 37.4 °F 32.1 °F 33.8 °F 87% 29.50 in 6.2 mi South 6.9 mph - N/A   Mostly Cloudy
8:30 PM 37.4 °F 32.8 °F 33.8 °F 87% 29.50 in 6.2 mi South 5.8 mph - N/A   Mostly Cloudy
9:00 PM 38 °F - 34 °F 79% 29.51 in 19 mi South 6.7 mph - -   Scattered Clouds
9:00 PM 39.2 °F 35.0 °F 33.8 °F 81% 29.47 in 6.2 mi South 5.8 mph - N/A   Mostly Cloudy
9:30 PM 37.4 °F 32.8 °F 33.8 °F 87% 29.47 in 6.2 mi SE 5.8 mph - N/A   Mostly Cloudy
10:00 PM 37 °F - 33 °F 82% 29.47 in 19 mi ESE 8.9 mph - -   Scattered Clouds
10:00 PM 37.4 °F 32.1 °F 33.8 °F 87% 29.44 in 6.2 mi ESE 6.9 mph - N/A   Mostly Cloudy
10:30 PM 37.4 °F 32.1 °F 33.8 °F 87% 29.42 in 6.2 mi East 6.9 mph - N/A   Mostly Cloudy
11:00 PM 37 °F - 35 °F 88% 29.44 in 19 mi East 6.7 mph - -   Scattered Clouds
11:00 PM 37.4 °F 32.1 °F 35.6 °F 93% 29.42 in 6.2 mi East 6.9 mph - N/A   Mostly Cloudy
11:30 PM 37.4 °F 32.1 °F 35.6 °F 93% 29.42 in 6.2 mi NE 6.9 mph - N/A   Mostly Cloudy